Regional Weather Roundup
Issued by NWS Charleston, SC

Current Version | Previous Version | Graphics & Text | Print | Product List | Glossary On
Versions: 1 2 3 4 5 6 7 8 9 10 11 12 13 14 15 16 17 18 19 20 21 22 23 24 25 26 27 28 29 30 31 32 33 34 35 36 37 38 39 40 41 42 43 44 45 46 47 48 49 50
000 ASUS42 KCHS 152025 RWRCHS REGIONAL WEATHER ROUNDUP NATIONAL WEATHER SERVICE CHARLESTON SC 400 PM EDT MON SEP 15 2014 NOTE: "FAIR" INDICATES FEW OR NO CLOUDS BELOW 12,000 FEET WITH NO SIGNIFICANT WEATHER AND/OR OBSTRUCTIONS TO VISIBILITY. NOT ALL STATIONS ARE QUALITY CONTROLLED BY THE NATIONAL WEATHER SERVICE. USE DATA WITH CAUTION...ESPECIALLY DEWPOINT OBSERVATIONS. SCZ027-030-031-034>040-042>050-152100- ...SOUTH CAROLINA... CITY SKY/WX TMP DP RH WIND PRES REMARKS N CHARLESTON CLOUDY 80 74 81 S10 30.10F THUNDER WATERFRONT PRK N/A 81 N/A N/A SE12 N/A FORT JOHNSON NOT AVBL MOUNT PLEASANT LGT RAIN 77 75 94 SE5 30.11S JOHNS ISLAND CLOUDY 81 81 100 CALM 30.11F HX 91 PINOPOLIS N/A 82 73 74 N5 30.05F MONCKS CORNER N/A 84 77 79 N5 30.10F HX 94 SUMMERVILLE MOCLDY 86 73 66 NE6 30.11F HX 93 BEAUFORT MCAS PTSUNNY 84 72 67 NE3 30.11F BEAUFORT ARPT CLOUDY 84 77 79 S3 30.10F HX 94 HILTON HEAD IS PTSUNNY 81 73 78 CALM 30.13F GEORGETOWN NOT AVBL WALTERBORO CLOUDY 82 72 69 NW5 30.11F ORANGEBURG LGT RAIN 76 71 85 NE3 30.13F BARNWELL CLOUDY 75 73 94 CALM 30.13F FOG AIKEN CLOUDY 73 73 100 CALM 30.17F MANNING CLOUDY 79 75 89 N3 30.12F KINGSTREE NOT AVBL COLUMBIA CLOUDY 75 69 81 VRB3 30.13F SUMTER CLOUDY 75 68 78 E3 30.12F FLORENCE CLOUDY 78 68 71 NE5 30.14F MYRTLE BEACH CLOUDY 77 70 78 E9 30.14F N MYRTLE BEACH CLOUDY 76 68 76 NE3 30.14F $$ GAZ063-065-086>088-099>101-113>116-118-119-134-136>141-150-152100- ...GEORGIA... CITY SKY/WX TMP DP RH WIND PRES REMARKS SAVANNAH ARPT TSTM 75 72 88 S8 30.13F FOG HUNTER AAF CLOUDY 73 73 100 SW1 30.10F FORT STEWART PTSUNNY 77 74 90 E7 30.10F STATESBORO NOT AVBL SYLVANIA CLOUDY 82 76 82 CALM 30.12F CLAXTON NOT AVBL THOMSON CLOUDY 76 75 96 CALM 30.17F AUGUSTA-BUSH CLOUDY 75 71 87 NE3 30.12F FOG AUGUSTA-DANIEL CLOUDY 76 71 85 NE3 30.14F HAZE SWAINSBORO FAIR 86 81 84 N5 30.11F HX 102 VIDALIA SUNNY 86 75 70 N5 30.10F HX 95 ALMA PTSUNNY 90 73 57 VRB3 30.08F HX 98 WAYCROSS CLOUDY 91 77 63 CALM 30.06F HX 103 JESUP N/A 86 75 70 E12 30.09S HX 95 BRUNSWICK MOSUNNY 88 72 58 E8 30.09F THUNDER HX 94 SAINT SIMONS MOSUNNY 84 73 69 SE12 30.08F HX 90 $$ SCZ027-028-034-036>038-045-046-048>050-GAZ119-141-152100- ...LAKE AND SUPPLEMENTAL COASTAL OBSERVATIONS... STATION/POSITION TIME TEMP WIND PRES WAVE SWELL AIR SEA DIR/SP/G HT/PER HT/PER/DIR (UTC) (F) (DEG/KT/KT) (MB) (FT/S) (FT/S/D) UPR LAKE MARION NOT AVBL WINYAH BAY 2000 77 50/ 9 1020.0S LAKE MURRAY 2000 76 180/ 2/ 4 1020.0F ACE BASIN NERRS 2000 83 CALM 1020.0S FORT PULASKI 2000 80 60/ 6/ 8 1020.2R SAPELO ISLAND 1900 87 100/ 8 1020.0F $$ ANZ835-935-AMZ111-154-330-350-352-354-374-450-454-472-152100- ...C-MAN AND BUOY OBSERVATIONS... STATION/POSITION TIME TEMP WIND PRES WAVE SWELL AIR SEA DIR/SP/G HT/PER HT/PER/DIR (UTC) (F) (DEG/KT/KT) (MB) (FT/S) (FT/S/D) FOLLY BEACH CMAN 2000 80 110/ 9/ 10 1020.0F BUOY 41004 2000 79 84 110/ 2/ 2 1019.4F 2/ 6 2/ 6 BUOY 41008 2000 82 85 100/ 8/ 10 1019.5F 2/ 5 2/ 80/ 5 5E ST. MARYS GA 2000 86 N/A 2/ 6 FRYING PAN BUOY NOT AVBL BUOY 41025 2000 74 360/ 10/ 14 1020.2F 4/ 8 3/ 60/ 8 CAPE LOOKOUT NC 2000 75 40/ 8/ 11 1020.6F BUOY 41002 1949 79 83 270/ 8/ 10 1019.5F 3/ 6 3/280/ 6 BUOY 41010 2000 83 85 CALM / 2 1020.0F 2/ 8 2/120/ 8 BUOY 41012 NOT AVBL ST AUGUSTINE FL 2000 82 110/ 7/ 8 1019.8F CAPERS NEARSHORE 1900 80 90/ 12/ 14 N/A FRIPP NEARSHORE NOT AVBL $$

USA.gov is the U.S. government's official web portal to all federal, state and local government web resources and services.